Location: Kępno
(51.2838°N, 17.9864°E)
Time: 22:30:14
(UTC+02:00)

ISS - Visible Passes

Search period start: 25 September 2018 00:00
Search period end: 05 October 2018 00:00
Orbit: 403 x 408 km, 51.6° (Epoch: 26 September)

Date Brightness Start Highest point End Pass type
(mag) Time Alt. Az. Time Alt. Az. Time Alt. Az.
25 Sep -2.5 19:28:31 10° SSW 19:31:15 24° SSE 19:33:25 13° E visible
25 Sep -2.3 21:04:09 10° WSW 21:06:06 33° WSW 21:06:06 33° WSW visible
26 Sep -3.7 20:12:20 10° WSW 20:15:35 58° SSE 20:16:23 42° ESE visible
26 Sep -0.6 21:48:45 10° W 21:49:04 12° W 21:49:04 12° W visible
27 Sep -3.2 19:20:37 10° SW 19:23:46 41° SSE 19:26:35 12° E visible
27 Sep -2.8 20:56:49 10° W 20:59:15 46° W 20:59:15 46° W visible
28 Sep -3.9 20:04:54 10° WSW 20:08:13 82° SSE 20:09:23 37° E visible
28 Sep -0.7 21:41:27 10° W 21:42:03 14° W 21:42:03 14° W visible
29 Sep -3.7 19:13:02 10° WSW 19:16:19 65° SSE 19:19:26 11° E visible
29 Sep -3.0 20:49:30 10° W 20:52:07 52° WNW 20:52:07 52° WNW visible
30 Sep -3.9 19:57:32 10° W 20:00:51 83° N 20:02:08 35° E visible
30 Sep -0.8 21:34:05 10° W 21:34:48 15° W 21:34:48 15° W visible
01 Oct -3.8 19:05:34 10° W 19:08:53 88° SSE 19:12:07 10° E visible
01 Oct -3.2 20:42:07 10° W 20:44:47 55° W 20:44:47 55° W visible
02 Oct -3.9 19:50:08 10° W 19:53:27 83° N 19:54:46 34° E visible
02 Oct -0.8 21:26:41 10° W 21:27:26 16° W 21:27:26 16° W visible
03 Oct -3.8 18:58:07 10° W 19:01:27 82° N 19:04:45 10° E visible
03 Oct -3.2 20:34:40 10° W 20:37:24 53° WSW 20:37:24 53° WSW visible
04 Oct -3.9 19:42:40 10° W 19:45:59 82° SSW 19:47:23 32° ESE visible
04 Oct -0.8 21:19:21 10° W 21:20:03 14° W 21:20:03 14° W visible
